Погода в Каргасоке

Погода в Каргасоке : погода сейчас, прогноз погоды и архив. Всё, что Вы хотите узнать о погоде в Каргасоке!

Хотите узнать прогноз погоды в Каргасоке? Тогда Вам сюда: Погода в Каргасоке

Поиск расширенной информации на нашем сайте:

Полезная информация: Варикозно расширенные вены.

Другие новости

Новости СМИ2

Главная страница сайта

Новости сайта

03.07.2017

Напоминаем, что на нашем специализированном сайте Метеоцентр.Азия вы можете получить высокодетализированные автоматические прогнозы погоды по пунктам России, СНГ и мира в авиационном формате (включающие направление и скорость ветра, видимость, явления погоды, количество и форму облачности, нижнюю и верхнюю границу облачности).

Рекомендуем: Вытянуть вмятину без покраски как убрать вмятину без покраски.

Погода в Каргасоке - сегодня

Время (UTC), дата Ветер
(°,м/с) 
Видим.   Явления Облачность Т
(°С)
Тd
(°С)
f(%) Тe
(°С)
Pmin
(гПа)
dP
(гПа)
Po
(мм)
O2
(г/м3)
Тmin Tmax R s Состояние
почвы
12 18.02.18 200 (Ю) 10 км  слаб. ливневой снег  9/5 450 м кучево-дожд., средняя, верхняя 
[Cb calv|Ac trans|Ci sp]
-10.7 -13.3 81 -14  1028.2  -0.4  765  322    -10  0.2     
00 19.02.18 210 (ЮЗ) 4000 м  слаб. ливневой снег  10/10 420 м кучево-дожд. 
[Cb calv]
-12.6 -14.6 85 -17  1026.2  -0.4  764  324  -13.8    0.6  51  равномерный
сухой снег
100% 
12 19.02.18 210 (ЮЗ) 20000 м  в посл. час ливневой снег  10/4 300 м кучево-дожд., средняя, верхняя 
[Cb calv|Ac trans|Ci sp]
-5.7 -7.6 86 -9  1026.3  -0.4  764  315    -5.7  0.2     
00 20.02.18 240 (ЮЗ) 4000 м  слаб. ливневой снег  10/10 400 м кучево-дожд. 
[Cb calv]
-8.3 -9.5 91 -10  1028.3  0.6  766  319  -8.4    0.7  53  равномерный
сухой снег
100% 
06 20.02.18 230 (ЮЗ) 20000 м  {ливн. осадки}  10/3 300 м кучево-дожд., верхняя 
[Cb calv|Cs]
-6.7 -8.9 84 -9  1027.8  -0.5  765  317           
09 20.02.18 тихо ()   10 км  слаб. ливневой снег  10/4 300 м кучево-дожд., верхняя 
[Cb calv|Cs]
-4.7 -7.8 79 -5  1027.3  -0.5  765  314           
12 20.02.18 тихо ()   4000 м  слаб. ливневой снег  10/6 360 м кучево-дожд., средняя 
[Cb calv|Ac und]
-6.8 -7.9 92 -7  1026.7  -0.6  764  317    -4.4  0.9     
15 20.02.18 210 (ЮЗ) 20000 м  {ливн. осадки}  1/0 средняя 
[Ac trans]
-8.5 -10.6 85 -10  1026.3  -0.5  764  319           
18 20.02.18 210 (ЮЗ) 20000 м  {ливн. осадки}  ясно 
-11.3 -13.2 86 -13  1025.7  -0.6  764  322           
21 20.02.18 190 (Ю) 20000 м    ясно 
-12.9 -14.8 86 -15  1025.7  -0.1  764  324           
00 21.02.18 210 (ЮЗ) 4000 м  слаб. ливневой снег  8/5 500 м кучево-дожд., верхняя 
[Cb calv|Ci sp]
-11.6 -13.4 86 -14  1025.6  764  323  -13.2    0.5  54  равномерный
сухой снег
100% 
06 21.02.18 030 (СВ) 20000 м  {ливн. осадки}  8/0 верхняя 
[Ci fib]
-9.3 -13.4 72 -9  1025.6  0.2  764  320           
09 21.02.18 080 (В) 20000 м    8/0 верхняя 
[Ci fib]
-9.1 -12.8 74 -11  1025.1  -0.5  763  319           
12 21.02.18 080 (В) 20000 м    8/0 средняя, верхняя 
[Ac trans|Ci fib]
-11.8 -14.3 82 -14  1024.2  -0.9  762  322    -7.7  0.0     
15 21.02.18 090 (В) 20000 м    10/0 верхняя 
[Cs]
-11.3 -13.4 84 -14  1023.1  -1.1  762  321           
18 21.02.18 090 (В) 20000 м    9/0 верхняя 
[Ci sp]
-11.1 -13 86 -15  1021.1  -2  760  320           
21 21.02.18 080 (В) 20000 м    8/0 верхняя 
[Ci sp]
-12 -13.9 86 -15  1019.8  -1.3  759  321           
00 22.02.18 080 (В) 20000 м    9/0 верхняя 
[Ci sp]
-11.9 -13.7 86 -15  1017.7  -2.1  758  320  -12.1      54  равномерный
сухой снег
100% 
03 22.02.18 090 (В) 4{10}  20000 м    10/0 средняя, верхняя 
[Ac trans|Cs]
-10.8 -13.2 82 -15  1015.8  -1.9  756  318           
06 22.02.18 080 (В) 20000 м  {ливн. осадки}  10/3 600 м кучево-дожд., верхняя 
[Cb calv|Cs]
-9 -11.8 80 -14  1013.8  -1.9  755  316           
09 22.02.18 080 (В) 3{10}  20000 м  {ливн. осадки}  10/8 570 м кучево-дожд., средняя 
[Cb calv|Ac und]
-8.6 -11.2 81 -11  1012.3  -1.5  754  315           
12 22.02.18 080 (В) 4000 м  слаб. ливневой снег  10/10 330 м кучево-дожд. 
[Cb calv]
-9.4 -10.9 89 -11  1012.4  0.1  754  316    -8.1     
00 23.02.18 220 (ЮЗ) 20000 м  {ливн. осадки}  ясно 
-15.3 -17.1 86 -19  1015.9  0.4  756  324  -15.3    56  равномерный
сухой снег
100% 
03 23.02.18 200 (Ю) 20000 м    ясно 
-16.9 -18.8 85 -19  1016.7  0.8  757  327  -17.9         
06 23.02.18 220 (ЮЗ) 20000 м    6/0 верхняя 
[Ci sp]
-11.6 -14.3 80 -14  1016  -0.6  756  320           
Время (UTC), дата Ветер
(°,м/с) 
Видим.   Явления Облачность Т
(°С)
Тd
(°С)
f(%) Тe
(°С)
Pmin
(гПа)
dP
(гПа)
Po
(мм)
O2
(г/м3)
Тmin Tmax R s Состояние
почвы

Для получения пояснительной информации подведите курсор к названию столбца.

ПОГОДА в Каргасоке - архив

Всё, что Вы хотите узнать о погоде в Каргасоке - удобно и подробно!

Выберите нужную дату (начиная с 1 января 2015* года) и нажмите кнопку "Найти".
Будут отображены архивные сводки погоды по пункту Каргасок, начиная с указанной даты.


Отображать данные в формате CSV (для использования в таблицах Excel)


Внимание! Наш архив погоды предназначен исключительно для личного некоммерческого использования в познавательных целях. Если Вам необходимы официальные справки о состоянии погоды (для производственных, юридических, коммерческих и т.п. целей), обращайтесь в органы Росгидромета.

*Примечание: данная дата относится к архиву по метеостанциям СССР (Россия, СНГ, Балтия).
Архив по метеостанциям Зарубежной Европы и Азии (кроме Китая) хранится 10 дней, по другим регионам земного шара (Китай, Африка, Америка, Австралия, Океания) - 1 день.

Каргасок - район местоположения метеостанции


Название, широта, долгота, высота метеостанции:
Каргасок 59.1°ш. 80.9°д. 59 м над ур. моря [Российская Федерация]

Дополнительная информация

В oтличие oт бoльшинства пoгoдных сайтoв мы публикуем пoдрoбную метеoинфoрмацию в детальнoм прoфессиoнальнoм фoрмате.

Характеристики температуры и влажнoсти вoздуха измеряются на высoте 2 м в тени вдали oт зданий и деревьев.
Скoрoсть ветра измеряется на высoте 10 м (на урoвне рoста челoвека скoрoсть ветра ниже в 1.5-2 раза). Если метеoстанция нахoдится в гoрoде или в лесу, тo скoрoсть ветра занижена на 2-4 м/с пo сравнению с oткрытым местoм. Скoрoсть ветра над акватoриями крупных рек и oзёр, а также на вершинах хoлмoв на 2-5 м/с выше, чем в oбычных услoвиях.
Атмoсфернoе давление в разных тoчках местнoсти мoжет значительнo oтличаться oт давления на метеoстанции, в зависимoсти oт услoвий рельефа (при пoдъёме на 10 м давление пoнижается примернo на 1 мм рт.ст.).